Location: Unspecified
(0.0000°N, 0.0000°E)
Time: 03:27:30
(UTC+02:00)

ITAMSAT 1 - Visible Passes

Search period start: 30 May 2017 00:00
Search period end: 09 June 2017 00:00
Orbit: 784 x 797 km, 98.8° (Epoch: 29 May)

Date Brightness Start Highest point End Pass type
(mag) Time Alt. Az. Time Alt. Az. Time Alt. Az.
30 May 10.1 05:17:07 10° N 05:17:52 14° N 05:17:52 14° N visible
31 May 10.5 04:47:56 10° NNE 04:48:10 11° NNE 04:48:10 11° NNE visible
01 Jun 10.0 05:59:03 10° NNW 05:59:12 11° NNW 05:59:12 11° NNW visible
02 Jun 10.0 05:28:40 10° N 05:29:30 15° N 05:29:30 15° N visible
03 Jun 10.3 04:59:11 10° NNE 04:59:47 13° NNE 04:59:47 13° NNE visible
05 Jun 9.9 05:40:19 10° NNW 05:41:06 14° NNW 05:41:06 14° NNW visible
06 Jun 10.1 05:10:33 10° N 05:11:23 15° N 05:11:23 15° N visible
07 Jun 10.6 04:41:32 10° NNE 04:41:41 11° NNE 04:41:41 11° NNE visible
08 Jun 9.9 05:52:08 10° NNW 05:52:41 12° NNW 05:52:41 12° NNW visible
